Location: Strawberry
(45.6646°N, 111.9596°W)
Time: 16:01:06
(UTC+00:00)

Vanguard 3 - All Passes

Search period start: 26 September 2022 00:00
Search period end: 06 October 2022 00:00
Orbit: 508 x 3258 km, 33.3° (Epoch: 25 September)

Date Brightness Start Highest point End Pass type
(mag) Time Alt. Az. Time Alt. Az. Time Alt. Az.
26 Sep - 01:35:51 10° WSW 01:43:11 14° SW 01:51:14 10° SSW visible
26 Sep - 17:43:14 10° SSW 17:48:43 27° SSE 17:57:07 10° E daylight
26 Sep - 19:52:24 10° WSW 20:00:16 43° S 20:13:29 10° ESE daylight
26 Sep - 22:03:22 10° WSW 22:13:24 38° SSW 22:28:35 10° SE daylight
27 Sep - 00:17:12 10° WSW 00:27:06 21° SSW 00:39:20 10° S daylight
27 Sep - 16:31:20 10° S 16:34:43 15° SE 16:39:04 10° ESE daylight
27 Sep - 18:38:53 10° SW 18:45:16 36° SSE 18:55:50 10° ESE daylight
27 Sep - 20:49:00 10° WSW 20:57:35 40° S 21:11:33 10° SE daylight
27 Sep - 23:01:04 10° WSW 23:11:00 28° SSW 23:24:44 10° SSE daylight
28 Sep - 01:21:12 10° SW 01:24:29 11° SW 01:27:56 10° SSW daylight
28 Sep - 17:25:54 10° SSW 17:30:50 26° SSE 17:38:19 10° ESE daylight
28 Sep - 19:35:07 10° WSW 19:42:14 40° S 19:54:09 10° ESE daylight
28 Sep - 21:46:03 10° WSW 21:55:04 33° SSW 22:08:45 10° SE daylight
29 Sep - 00:00:24 10° WSW 00:08:31 18° SSW 00:18:28 10° S daylight
29 Sep - 16:13:53 10° S 16:16:53 15° SE 16:20:40 10° ESE daylight
29 Sep - 18:21:38 10° SW 18:27:24 34° SSE 18:36:47 10° ESE daylight
29 Sep - 20:31:45 10° WSW 20:39:28 36° S 20:51:58 10° SE daylight
29 Sep - 22:43:57 10° WSW 22:52:36 24° SSW 23:04:25 10° SSE daylight
30 Sep - 17:08:37 10° SSW 17:13:03 25° SSE 17:19:38 10° ESE daylight
30 Sep - 19:17:55 10° WSW 19:24:19 36° S 19:34:52 10° ESE daylight
30 Sep - 21:28:54 10° WSW 21:36:52 28° SSW 21:48:48 10° SSE daylight
30 Sep - 23:44:20 10° WSW 23:50:05 14° SSW 23:56:49 10° S daylight
01 Oct - 15:56:28 10° S 15:59:07 14° SSE 16:02:24 10° ESE daylight
01 Oct - 18:04:27 10° SW 18:09:38 32° S 18:17:51 10° ESE daylight
01 Oct - 20:14:36 10° WSW 20:21:29 31° S 20:32:23 10° SE daylight
01 Oct - 22:27:11 10° WSW 22:34:20 19° SSW 22:43:49 10° S daylight
02 Oct - 16:51:23 10° SW 16:55:22 23° SSE 17:01:04 10° ESE daylight
02 Oct - 19:00:46 10° WSW 19:06:30 32° S 19:15:40 10° SE daylight
02 Oct - 21:11:56 10° WSW 21:18:47 24° SSW 21:28:44 10° SSE daylight
03 Oct - 15:39:05 10° S 15:41:26 14° SSE 15:44:13 10° ESE daylight
03 Oct - 17:47:19 10° SW 17:51:56 28° S 17:59:00 10° ESE daylight
03 Oct - 19:57:35 10° WSW 20:03:36 27° S 20:12:47 10° SE daylight
03 Oct - 22:10:56 10° SW 22:16:12 15° SSW 22:22:44 10° S daylight
04 Oct - 16:34:11 10° SW 16:37:44 22° SSE 16:42:36 10° ESE daylight
04 Oct - 18:43:44 10° WSW 18:48:46 27° S 18:56:29 10° SE daylight
04 Oct - 20:55:14 10° WSW 21:00:50 19° SSW 21:08:31 10° SSE daylight
05 Oct - 15:21:41 10° S 15:23:47 14° SSE 15:26:13 10° SE daylight
05 Oct - 17:30:13 10° SW 17:34:19 25° S 17:40:16 10° SE daylight
05 Oct - 19:40:43 10° WSW 19:45:48 22° SSW 19:53:09 10° SSE daylight
05 Oct - 21:56:44 10° SW 21:58:10 10° SSW 21:59:41 10° SSW daylight
